This demonstration page uses our WeatherBlox Daily Observations layout. Learn more.

Left ArrowRight Arrow

31.84235, -102.49876

Hourly Observations for November 13, 2015

Temp ( °F °C ) Dew Point ( °F °C ) Humidity (%) Winds ( mph kmh ) Pressure ( in mb ) Visibility ( mi km ) Precip ( " mm )
12:53 am 00:53 Cloudy 53 11.7 31 -0.6 43 43 SE 12 19 30.19 1022 10 16 0.00 0.00
1:53 am 01:53 Cloudy 53 11.7 32 0 45 45 ESE 8 13 30.18 1022 10 16 0.00 0.00
2:53 am 02:53 Cloudy 53 11.7 33 0.6 47 47 ESE 7 11 30.17 1022 10 16 0.00 0.00
3:53 am 03:53 Cloudy 53 11.7 33 0.6 47 47 ESE 9 15 30.16 1022 10 16 0.00 0.00
4:53 am 04:53 Mostly Cloudy 52 11.1 33 0.6 49 49 ESE 10 17 30.16 1022 10 16 0.00 0.00
5:53 am 05:53 Mostly Clear 48 8.9 34 1.1 58 58 ESE 8 13 30.19 1022 10 16 0.00 0.00
6:53 am 06:53 Mostly Cloudy 47 8.3 34 1.1 61 61 ESE 8 13 30.22 1023 10 16 0.00 0.00
7:53 am 07:53 Cloudy 51 10.6 35 1.7 54 54 ESE 8 13 30.23 1024 10 16 0.00 0.00
8:53 am 08:53 Mostly Sunny 54 12.2 34 1.1 47 47 ESE 13 20 30.25 1024 10 16 0.00 0.00
9:53 am 09:53 Sunny 58 14.4 30 -1.1 35 35 SE 17 28 30.26 1025 10 16 0.00 0.00
10:53 am 10:53 Sunny 61 16.1 30 -1.1 31 31 SE 16 26 30.24 1024 10 16 0.00 0.00
11:53 am 11:53 Sunny 64 17.8 29 -1.7 27 27 SE 17 28 30.22 1023 10 16 0.00 0.00
12:53 pm 12:53 Sunny 65 18.3 28 -2.2 25 25 SSE 17 28 30.18 1022 10 16 0.00 0.00
1:53 pm 13:53 Sunny 66 18.9 28 -2.2 24 24 SSE 14 22 30.14 1021 10 16 0.00 0.00
2:53 pm 14:53 Sunny 67 19.4 29 -1.7 24 24 SSE 14 22 30.12 1020 10 16 0.00 0.00
5:53 pm 17:53 Clear 61 16.1 31 -0.6 32 32 SE 7 11 30.13 1020 10 16 0.00 0.00
6:53 pm 18:53 Clear 58 14.4 33 0.6 39 39 SE 7 11 30.15 1021 10 16 0.00 0.00
7:53 pm 19:53 Clear 58 14.4 34 1.1 41 41 SSE 7 11 30.16 1022 10 16 0.00 0.00
8:53 pm 20:53 Clear 55 12.8 35 1.7 47 47 SSE 9 15 30.18 1022 10 16 0.00 0.00
9:53 pm 21:53 Clear 54 12.2 35 1.7 49 49 SE 8 13 30.19 1022 10 16 0.00 0.00
10:53 pm 22:53 Clear 53 11.7 36 2.2 52 52 SE 8 13 30.19 1022 10 16 0.00 0.00
11:53 pm 23:53 Clear 52 11.1 35 1.7 53 53 SSE 8 13 30.16 1022 10 16 0.00 0.00

Powered by AerisWeather